This is the latest recevied weather packets stored in our database for station/object W7MB. If no packets are shown the sender has not sent any weather packets the latest 10 day(s).
| Time | Temp. | Humidity | Pressure | Rain* | Wind** | Luminosity | Snow |
|---|---|---|---|---|---|---|---|
| 1778118123 | 18.89° C | 50% | 1014.9 hPa | 0 mm | - | - | - |
| 1778117763 | 18.89° C | 52% | 1014.8 hPa | 0 mm | - | - | - |
| 1778117403 | 18.89° C | 51% | 1014.7 hPa | 0 mm | - | - | - |
| 1778117043 | 18.89° C | 51% | 1014.7 hPa | 0 mm | - | - | - |
| 1778116683 | 18.89° C | 48% | 1014.6 hPa | 0 mm | - | - | - |
| 1778116323 | 19.44° C | 47% | 1014.5 hPa | 0 mm | - | - | - |
| 1778115963 | 19.44° C | 43% | 1014.6 hPa | 0 mm | - | - | - |
| 1778115604 | 20° C | 42% | 1014.5 hPa | 0 mm | - | - | - |
| 1778115243 | 20° C | 43% | 1014.6 hPa | 0 mm | - | - | - |
| 1778114883 | 20.56° C | 40% | 1014.6 hPa | 0 mm | - | - | - |
| 1778114523 | 21.11° C | 38% | 1014.6 hPa | 0 mm | - | - | - |
| 1778114163 | 21.67° C | 35% | 1014.5 hPa | 0 mm | - | - | - |
| 1778113803 | 21.67° C | 37% | 1014.4 hPa | 0 mm | - | - | - |
| 1778113443 | 22.22° C | 37% | 1014.4 hPa | 0 mm | - | - | - |
| 1778113083 | 22.22° C | 36% | 1014.4 hPa | 0 mm | - | - | - |
| 1778112723 | 21.67° C | 38% | 1014.1 hPa | 0 mm | - | - | - |
| 1778112363 | 21.11° C | 39% | 1014.1 hPa | 0 mm | - | - | - |
| 1778112003 | 21.11° C | 39% | 1014.1 hPa | 0 mm | - | - | - |
| 1778111644 | 20.56° C | 37% | 1014.1 hPa | 0 mm | - | - | - |
| 1778111284 | 20.56° C | 37% | 1014.2 hPa | 0 mm | - | - | - |
| 1778110923 | 20.56° C | 38% | 1014.1 hPa | 0 mm | - | - | - |
| 1778110563 | 20.56° C | 37% | 1014.2 hPa | 0 mm | - | - | - |
| 1778110203 | 20.56° C | 37% | 1014.2 hPa | 0 mm | - | - | - |
| 1778109844 | 21.11° C | 39% | 1014.2 hPa | 0 mm | - | - | - |
| 1778109483 | 20.56° C | 38% | 1014.2 hPa | 0 mm | - | - | - |
* Rain latest hour (hover to see other rain measurements)
** Current wind speed in m/s (hover to see current wind gust speed)